Temp
-17 -17 -18 -18 -19 -19 -19 -19 -19 -19 -19 -19 -20 -20 -21 -21 -22 -23 -23 -24 -26 -28 -30 -30 -31 -31 -31 -32 -32 -32 -32 -32 -32 -32 -32 -32 -32 -32 -32 -32 -32 -32 -32
-18 -18 -19 -19 -19 -20 -20 -20 -20 -20 -20 -20 -21 -21 -22 -22 -23 -24 -25 -26 -28 -30 -31 -31 -31 -31 -32 -32 -33 -33 -33 -32 -32 -32 -32 -32 -32 -32 -32 -32 -32 -32 -32
-18 -19 -19 -19 -20 -20 -20 -20 -20 -20 -21 -21 -21 -22 -23 -23 -24 -26 -27 -29 -31 -31 -31 -31 -32 -32 -33 -33 -33 -33 -32 -32 -33 -33 -33 -33 -34 -34 -34 -34 -34 -33 -33
-19 -19 -19 -20 -20 -20 -20 -21 -21 -21 -21 -22 -22 -23 -24 -24 -27 -28 -29 -31 -32 -32 -32 -32 -32 -33 -33 -33 -33 -33 -32 -33 -33 -33 -34 -34 -34 -35 -35 -35 -35 -35 -35
-19 -20 -20 -20 -20 -21 -21 -21 -21 -22 -22 -23 -24 -24 -25 -27 -28 -29 -31 -32 -32 -32 -32 -32 -33 -33 -33 -33 -33 -33 -33 -33 -34 -34 -34 -34 -35 -35 -35 -35 -35 -35 -35
-20 -20 -20 -21 -21 -21 -21 -22 -22 -23 -23 -24 -24 -25 -27 -28 -29 -31 -32 -32 -32 -32 -33 -33 -33 -33 -33 -33 -33 -33 -33 -33 -34 -34 -34 -35 -35 -35 -35 -35 -35 -35 -35
-20 -20 -21 -21 -21 -22 -22 -23 -23 -23 -24 -24 -25 -27 -28 -29 -31 -32 -33 -32 -33 -33 -33 -33 -33 -33 -33 -33 -33 -33 -34 -34 -34 -34 -34 -35 -35 -35 -36 -36 -36 -36 -36
-21 -21 -21 -21 -22 -23 -23 -23 -23 -24 -25 -25 -27 -28 -29 -31 -32 -33 -33 -33 -33 -33 -33 -33 -33 -33 -33 -33 -33 -33 -34 -34 -34 -34 -34 -35 -35 -35 -36 -36 -37 -37 -37
-21 -21 -22 -22 -23 -24 -24 -24 -24 -25 -26 -27 -28 -29 -31 -32 -33 -33 -33 -33 -33 -33 -34 -34 -33 -33 -33 -33 -33 -34 -34 -34 -34 -34 -34 -34 -35 -36 -36 -36 -37 -37 -37
-21 -22 -23 -23 -24 -24 -24 -24 -25 -26 -27 -28 -29 -30 -32 -32 -33 -33 -33 -33 -33 -34 -34 -34 -33 -33 -33 -33 -33 -34 -34 -34 -34 -34 -34 -34 -35 -36 -36 -36 -37 -37 -37
-22 -23 -23 -24 -24 -24 -25 -25 -26 -27 -28 -29 -30 -31 -32 -33 -33 -33 -33 -33 -33 -34 -34 -34 -34 -33 -33 -34 -33 -34 -34 -34 -34 -34 -34 -34 -35 -35 -36 -36 -36 -37 -37
-23 -24 -24 -24 -24 -25 -26 -26 -27 -28 -29 -30 -31 -32 -32 -33 -33 -33 -33 -34 -34 -34 -34 -34 -34 -34 -33 -34 -34 -34 -34 -34 -34 -34 -34 -34 -34 -35 -36 -36 -36 -37 -37
-24 -24 -25 -25 -25 -26 -26 -27 -28 -29 -30 -31 -32 -32 -33 -33 -34 -34 -34 -34 -34 -34 -34 -34 -34 -34 -34 -34 -34 -34 -34 -34 -34 -34 -34 -34 -34 -35 -35 -35 -36 -36 -36
-24 -25 -25 -25 -26 -27 -27 -28 -30 -30 -31 -32 -32 -33 -33 -34 -34 -34 -34 -34 -34 -35 -35 -35 -34 -34 -34 -34 -34 -34 -34 -34 -34 -34 -34 -34 -34 -34 -35 -35 -35 -35 -36
-25 -25 -26 -26 -27 -28 -29 -30 -30 -31 -32 -32 -33 -33 -33 -34 -34 -34 -34 -34 -35 -35 -35 -35 -35 -35 -35 -34 -34 -34 -34 -34 -34 -34 -34 -34 -34 -34 -34 -35 -35 -35 -35
-26 -26 -27 -27 -28 -29 -30 -30 -31 -32 -33 -33 -33 -33 -34 -34 -34 -34 -34 -35 -35 -35 -35 -35 -35 -35 -35 -35 -35 -35 -34 -34 -34 -34 -34 -34 -34 -34 -34 -34 -34 -35 -35
-26 -27 -28 -29 -29 -30 -31 -31 -32 -33 -33 -34 -34 -34 -34 -35 -35 -35 -35 -35 -35 -35 -35 -35 -35 -35 -35 -35 -35 -35 -35 -35 -34 -34 -34 -34 -34 -34 -34 -34 -34 -34 -34
-28 -28 -29 -30 -31 -31 -31 -31 -32 -34 -34 -34 -34 -34 -34 -34 -35 -35 -35 -35 -35 -35 -35 -35 -36 -36 -36 -36 -36 -35 -35 -35 -35 -34 -34 -34 -34 -34 -34 -34 -34 -34 -34
-29 -30 -30 -31 -31 -31 -31 -32 -33 -34 -34 -34 -34 -34 -34 -34 -35 -35 -35 -35 -35 -35 -35 -36 -36 -36 -36 -36 -36 -36 -36 -35 -35 -35 -34 -34 -34 -34 -33 -33 -33 -34 -34
-30 -30 -31 -31 -31 -32 -32 -32 -33 -34 -35 -35 -35 -34 -34 -34 -35 -35 -35 -35 -35 -35 -35 -36 -36 -36 -36 -36 -36 -36 -36 -36 -36 -35 -35 -34 -34 -34 -33 -33 -33 -33 -33
-31 -31 -31 -32 -32 -32 -32 -32 -33 -34 -35 -35 -35 -35 -35 -35 -35 -35 -35 -35 -35 -35 -36 -36 -36 -36 -36 -36 -36 -36 -36 -37 -36 -36 -35 -35 -34 -34 -34 -33 -33 -33 -33
-32 -32 -32 -32 -32 -32 -32 -32 -33 -34 -35 -35 -35 -35 -35 -35 -35 -35 -35 -35 -35 -36 -36 -36 -36 -36 -36 -36 -36 -37 -37 -37 -37 -36 -36 -36 -35 -35 -34 -34 -34 -33 -33
-32 -32 -33 -33 -33 -32 -32 -33 -33 -34 -35 -35 -35 -35 -35 -35 -35 -35 -35 -35 -36 -36 -36 -36 -36 -36 -36 -36 -37 -37 -37 -37 -37 -37 -37 -36 -36 -35 -35 -34 -34 -34 -33
-33 -33 -33 -33 -33 -33 -33 -33 -34 -35 -35 -35 -35 -35 -35 -35 -35 -35 -35 -35 -36 -36 -36 -36 -36 -36 -37 -37 -37 -37 -37 -37 -37 -37 -37 -37 -37 -36 -36 -35 -35 -34 -34
-33 -33 -33 -33 -33 -33 -33 -33 -34 -35 -35 -35 -35 -35 -35 -35 -35 -35 -35 -35 -36 -36 -36 -36 -36 -36 -37 -37 -37 -37 -37 -37 -37 -37 -37 -38 -37 -37 -37 -36 -36 -36 -35
-33 -33 -33 -33 -33 -34 -34 -34 -34 -35 -35 -35 -36 -36 -36 -36 -36 -36 -36 -36 -36 -36 -36 -36 -37 -37 -37 -37 -37 -37 -37 -38 -38 -38 -38 -38 -38 -38 -38 -37 -37 -37 -37
Height
5708 5701 5694 5687 5680 5673 5665 5657 5648 5639 5629 5619 5607 5596 5584 5570 5557 5543 5528 5514 5502 5489 5480 5473 5466 5458 5451 5444 5439 5433 5428 5422 5414 5415 5408 5403 5400 5395 5390 5387 5387 5388 5389
5697 5690 5683 5676 5668 5660 5651 5642 5633 5624 5613 5602 5590 5578 5564 5550 5536 5522 5508 5495 5484 5475 5468 5462 5454 5447 5440 5434 5428 5421 5415 5409 5401 5395 5395 5388 5384 5381 5377 5373 5371 5371 5372
5685 5678 5671 5663 5655 5646 5637 5628 5619 5608 5597 5584 5571 5557 5543 5530 5515 5501 5487 5476 5468 5462 5457 5450 5443 5436 5430 5423 5416 5409 5402 5396 5389 5381 5380 5373 5368 5365 5362 5359 5356 5355 5355
5673 5666 5658 5650 5642 5633 5624 5614 5603 5591 5579 5565 5551 5538 5523 5508 5493 5480 5469 5461 5456 5451 5446 5439 5433 5426 5418 5412 5404 5396 5389 5383 5377 5370 5366 5361 5357 5352 5348 5345 5344 5341 5340
5661 5653 5645 5637 5628 5619 5608 5597 5585 5573 5560 5547 5533 5519 5504 5489 5476 5465 5457 5451 5446 5441 5436 5429 5422 5415 5407 5399 5392 5385 5378 5371 5366 5361 5356 5351 5345 5339 5333 5330 5328 5327 5327
5648 5640 5632 5623 5613 5603 5592 5581 5568 5556 5543 5530 5515 5499 5486 5474 5462 5453 5446 5442 5437 5432 5426 5420 5412 5405 5397 5389 5381 5374 5368 5361 5356 5351 5346 5340 5333 5326 5320 5315 5313 5311 5313
5635 5626 5618 5608 5598 5587 5576 5564 5552 5540 5526 5512 5498 5483 5470 5459 5450 5444 5438 5434 5428 5423 5418 5411 5403 5394 5387 5378 5371 5365 5358 5353 5348 5343 5337 5330 5322 5314 5308 5303 5299 5298 5299
5621 5613 5603 5593 5582 5571 5560 5548 5535 5522 5509 5495 5480 5468 5456 5446 5439 5435 5430 5426 5421 5415 5409 5401 5394 5385 5377 5369 5363 5357 5350 5346 5341 5334 5327 5320 5312 5305 5298 5292 5289 5286 5286
5607 5598 5588 5578 5567 5555 5544 5531 5518 5506 5491 5477 5466 5454 5443 5436 5431 5427 5422 5418 5413 5407 5400 5393 5385 5376 5368 5361 5355 5349 5344 5339 5334 5327 5320 5312 5304 5297 5289 5284 5280 5278 5277
5592 5583 5572 5562 5552 5540 5528 5515 5503 5490 5475 5463 5452 5441 5433 5427 5423 5419 5415 5411 5406 5400 5393 5386 5378 5370 5361 5354 5348 5342 5338 5334 5328 5322 5314 5306 5299 5292 5285 5279 5276 5274 5273
5577 5568 5557 5546 5535 5523 5511 5499 5486 5474 5462 5451 5440 5431 5425 5419 5415 5412 5408 5403 5399 5393 5387 5380 5372 5364 5355 5348 5342 5336 5333 5329 5323 5317 5310 5302 5296 5289 5282 5277 5273 5271 5271
5562 5552 5541 5530 5518 5507 5495 5482 5469 5458 5447 5438 5429 5421 5416 5411 5407 5404 5400 5396 5391 5386 5380 5374 5366 5358 5350 5343 5337 5331 5328 5324 5319 5313 5307 5300 5294 5288 5282 5277 5273 5271 5270
5546 5535 5525 5514 5502 5490 5479 5466 5454 5444 5434 5426 5418 5412 5407 5403 5400 5397 5393 5389 5385 5380 5374 5368 5360 5353 5345 5338 5332 5327 5324 5320 5315 5310 5304 5298 5292 5288 5283 5278 5275 5273 5272
5531 5520 5508 5497 5486 5474 5462 5451 5441 5432 5423 5415 5409 5403 5399 5395 5392 5389 5386 5382 5378 5373 5368 5362 5356 5349 5341 5335 5328 5323 5320 5316 5312 5308 5302 5297 5292 5287 5284 5281 5278 5276 5275
5514 5503 5493 5482 5470 5459 5448 5438 5429 5420 5413 5406 5400 5395 5390 5387 5385 5382 5379 5375 5372 5368 5362 5357 5351 5344 5337 5330 5324 5320 5316 5313 5310 5306 5301 5297 5292 5288 5284 5282 5281 5279 5279
5498 5487 5477 5466 5454 5444 5434 5426 5418 5410 5404 5398 5392 5387 5383 5380 5377 5375 5372 5369 5365 5362 5357 5353 5347 5341 5334 5327 5321 5316 5312 5309 5306 5304 5300 5296 5292 5288 5285 5282 5281 5281 5280
5482 5471 5460 5449 5439 5430 5422 5414 5406 5400 5396 5391 5386 5380 5376 5372 5370 5367 5365 5362 5359 5356 5352 5347 5342 5337 5331 5325 5319 5313 5309 5305 5303 5301 5298 5295 5292 5289 5286 5283 5281 5280 5281
5465 5454 5444 5434 5425 5417 5410 5403 5396 5391 5387 5383 5379 5374 5369 5365 5362 5360 5358 5355 5353 5349 5345 5342 5337 5333 5328 5322 5317 5311 5306 5302 5299 5297 5296 5294 5292 5289 5287 5285 5283 5282 5282
5448 5438 5428 5421 5413 5405 5398 5391 5385 5381 5378 5375 5371 5367 5364 5359 5355 5352 5350 5347 5345 5342 5339 5336 5332 5328 5324 5319 5314 5309 5303 5299 5295 5293 5292 5292 5290 5289 5288 5286 5285 5284 5284
5433 5424 5414 5407 5400 5394 5386 5380 5374 5371 5368 5365 5362 5359 5356 5353 5349 5346 5343 5340 5337 5335 5332 5329 5326 5322 5319 5315 5311 5306 5301 5297 5293 5290 5288 5288 5287 5287 5286 5286 5286 5286 5286
5418 5409 5401 5394 5387 5381 5375 5368 5363 5360 5358 5355 5353 5350 5348 5344 5341 5338 5335 5333 5329 5327 5324 5322 5319 5316 5313 5310 5307 5303 5299 5294 5290 5286 5284 5283 5283 5283 5283 5284 5284 5285 5285
5403 5396 5388 5381 5375 5369 5363 5357 5352 5349 5347 5345 5343 5341 5338 5336 5333 5329 5326 5324 5321 5319 5316 5313 5311 5309 5306 5304 5301 5298 5295 5291 5287 5283 5280 5278 5277 5278 5279 5279 5280 5281 5282
5388 5381 5375 5368 5362 5356 5351 5345 5341 5338 5336 5335 5333 5330 5328 5325 5323 5320 5317 5314 5312 5309 5307 5305 5302 5300 5298 5296 5294 5292 5289 5287 5284 5280 5277 5274 5272 5271 5272 5273 5274 5275 5276
5373 5367 5361 5355 5349 5343 5339 5334 5330 5327 5325 5323 5321 5319 5317 5315 5312 5310 5307 5305 5302 5300 5298 5296 5294 5292 5290 5288 5286 5285 5283 5280 5278 5275 5272 5269 5267 5266 5265 5266 5267 5268 5270
5358 5352 5347 5341 5336 5331 5326 5322 5318 5316 5314 5312 5310 5308 5306 5303 5301 5299 5297 5294 5292 5290 5288 5286 5284 5282 5281 5279 5278 5276 5275 5273 5271 5269 5267 5264 5262 5260 5259 5259 5259 5260 5262
5343 5338 5332 5327 5322 5318 5314 5310 5306 5304 5302 5300 5298 5296 5294 5292 5290 5288 5285 5283 5281 5279 5277 5276 5274 5272 5271 5269 5268 5267 5266 5265 5264 5262 5261 5258 5256 5254 5252 5252 5252 5252 5253
Wind_Speed
47 51 53 54 56 59 60 63 66 68 72 77 82 86 88 89 90 92 96 91 81 69 52 46 46 45 45 44 44 46 47 47 49 45 47 46 45 46 48 50 50 50 48
51 52 54 56 59 60 63 65 68 72 77 82 84 86 87 88 91 93 85 78 65 48 44 43 42 42 42 44 47 46 48 48 50 48 41 45 46 47 48 50 51 51 50
53 55 56 58 60 62 65 68 72 77 80 84 85 86 86 90 91 82 75 62 46 41 40 41 43 44 43 45 47 48 48 48 45 47 44 45 42 41 40 41 44 46 48
56 57 58 59 62 64 68 72 77 80 83 84 85 85 89 88 79 74 61 46 39 38 40 42 45 45 45 47 47 48 48 44 44 44 38 37 40 43 44 44 42 42 42
58 58 59 61 64 68 72 77 80 81 82 83 84 87 86 78 73 60 48 38 37 38 40 44 47 46 48 48 47 47 43 43 40 35 36 40 41 43 44 43 43 43 42
59 60 62 64 68 72 76 79 80 80 81 82 86 85 77 73 62 50 38 35 37 37 40 44 46 47 46 45 45 42 41 38 33 36 37 37 40 40 40 41 40 39 39
60 61 63 67 71 75 78 78 79 80 81 84 84 76 71 64 50 38 34 35 35 36 41 44 44 45 44 44 41 38 37 31 34 34 35 38 37 37 37 36 36 36 35
61 63 67 71 75 77 78 81 81 80 83 82 74 69 65 51 40 32 32 32 33 38 41 42 43 43 42 40 36 36 29 29 32 34 36 37 35 34 37 32 28 30 31
63 67 70 73 75 76 81 83 81 82 82 75 67 65 53 42 32 30 31 30 33 38 39 40 41 41 40 36 34 31 25 28 29 33 35 34 32 30 30 23 21 20 18
67 70 71 74 76 78 83 82 80 80 75 66 63 56 43 35 28 29 30 30 34 36 37 37 38 37 35 33 33 26 23 26 27 31 33 31 29 26 23 17 15 13 13
71 71 73 76 77 82 82 80 80 75 66 61 57 46 37 31 27 29 29 30 34 34 34 34 36 35 33 31 31 24 22 24 26 29 29 28 26 23 19 14 10 9 9
72 73 75 78 80 82 80 79 74 67 61 56 49 39 33 28 27 28 28 30 33 32 32 33 34 33 32 29 27 22 21 23 24 26 26 26 22 20 18 14 9 7 6
74 75 77 78 82 81 79 73 67 60 56 50 42 35 32 27 27 27 27 29 31 31 31 31 33 34 31 30 27 22 19 22 23 24 24 24 21 17 15 13 10 6 3
76 77 79 80 80 77 73 66 59 55 50 44 38 33 30 27 26 25 26 28 29 30 29 30 32 33 32 29 26 22 18 19 20 22 22 23 21 15 13 11 8 6 3
77 79 80 78 76 71 65 60 54 50 44 40 35 32 29 27 26 25 25 27 28 28 28 29 30 32 33 30 27 23 18 17 18 18 19 20 20 16 10 7 6 3 3
79 80 77 74 69 64 58 54 50 44 39 36 33 30 28 26 26 25 25 26 26 27 27 28 28 30 32 31 28 24 20 17 16 17 17 17 18 16 12 7 5 4 3
78 76 73 68 63 58 54 51 46 39 34 32 29 28 26 25 26 25 25 26 25 25 25 26 26 28 29 30 29 25 21 18 16 16 15 14 14 15 13 8 4 3 5
73 71 67 62 57 53 51 49 42 35 32 30 28 25 25 24 25 25 25 26 25 25 26 25 25 26 27 28 29 27 22 19 16 15 14 13 12 12 11 8 5 1 2
70 66 62 57 53 51 50 46 40 33 31 29 28 27 25 24 23 24 26 26 26 26 26 25 25 26 25 26 27 29 26 21 18 15 14 13 12 10 9 7 4 1 3
64 61 58 55 51 48 48 45 39 33 31 31 31 31 29 26 25 24 24 25 27 27 27 26 26 26 25 25 26 27 28 25 19 17 16 15 14 11 10 9 6 6 6
61 59 56 53 50 47 46 44 38 33 32 32 32 31 29 29 29 28 26 25 27 27 27 27 27 27 25 26 26 25 26 27 24 18 16 16 17 16 14 12 12 11 11
58 56 53 50 48 46 45 43 38 34 33 33 32 32 32 31 31 30 28 27 27 27 28 28 28 29 29 28 27 25 24 25 25 22 18 16 17 20 20 18 16 16 16
56 53 50 48 47 45 44 42 37 34 34 34 34 33 34 33 33 31 30 29 28 27 28 29 30 30 29 28 26 25 24 24 24 24 21 18 17 18 22 24 22 20 20
53 50 49 47 45 44 42 40 36 34 34 34 35 35 35 34 33 32 31 30 29 28 28 29 30 30 30 29 28 27 25 24 24 24 23 21 18 18 18 22 26 27 24
49 49 50 48 45 43 41 40 36 34 35 35 34 34 34 34 33 32 31 30 29 30 30 30 30 31 30 29 29 28 25 25 24 24 24 23 20 18 19 19 22 26 29
51 52 51 49 45 42 40 38 36 35 36 36 35 35 34 34 33 32 32 32 32 32 33 33 33 33 32 31 29 27 26 25 25 25 24 24 23 20 19 20 20 22 25
Wind_Direction
306 305 306 306 306 305 304 305 306 308 307 308 308 309 309 310 310 311 311 310 309 306 302 302 301 301 300 300 300 299 298 298 296 295 292 288 284 281 280 278 274 269 264
306 305 305 304 304 305 306 307 308 308 308 309 308 309 311 312 313 312 310 310 307 301 298 303 305 306 304 302 303 302 302 301 300 298 296 292 289 284 279 275 272 269 265
306 307 306 305 305 306 307 308 308 309 309 309 310 312 313 314 313 312 312 308 301 300 301 306 310 310 306 306 306 304 303 304 301 301 301 297 294 290 285 281 276 270 264
308 308 308 306 307 307 308 309 309 310 311 312 313 314 315 315 314 315 310 305 302 301 303 308 310 311 309 308 306 306 306 305 304 303 302 298 295 291 287 283 277 274 271
309 308 307 307 307 308 309 309 311 312 314 315 315 316 316 315 316 312 306 300 302 302 305 308 312 311 310 310 310 309 308 308 306 303 302 300 297 291 286 281 276 271 267
308 308 308 307 307 308 309 311 314 315 315 316 318 317 316 316 315 309 301 301 302 303 308 311 310 311 311 310 310 309 309 308 305 306 307 305 302 296 290 285 278 270 266
307 308 307 307 308 309 312 315 316 316 318 319 318 316 317 316 310 304 298 302 303 307 311 311 312 312 313 312 311 311 311 307 309 308 311 311 308 302 298 288 283 276 268
307 307 308 308 309 312 315 318 317 318 319 319 317 317 317 313 307 300 301 303 306 311 313 313 314 315 315 313 313 313 306 308 310 313 317 317 313 307 305 301 288 276 270
308 308 309 309 311 313 315 318 318 319 319 318 318 317 314 309 301 299 302 304 310 314 315 316 318 319 319 315 314 313 305 310 313 319 322 320 319 315 310 303 288 281 269
308 309 309 311 312 314 317 317 318 319 318 318 318 317 312 305 297 299 300 304 313 315 316 320 322 322 320 317 318 313 306 312 318 324 327 324 325 322 324 311 296 284 265
308 310 310 312 314 315 316 318 319 319 317 318 317 314 308 301 294 298 298 306 314 315 318 322 325 326 326 323 322 313 309 315 322 328 331 331 329 331 330 325 308 287 256
310 311 313 314 315 317 318 319 319 317 317 318 316 312 308 300 295 297 299 307 314 315 319 323 330 332 330 328 327 314 311 319 324 331 335 338 334 339 342 344 332 308 277
311 312 313 314 316 318 318 318 317 317 318 318 315 310 307 297 295 295 299 307 313 315 319 324 332 337 336 334 332 319 311 320 325 333 338 343 341 341 350 355 357 357 346
309 311 313 314 317 317 318 317 316 316 318 317 313 309 305 295 292 292 298 307 311 314 319 325 332 338 341 337 332 325 308 317 324 335 339 344 346 340 347 5 18 27 36
310 312 314 315 316 317 317 316 316 317 316 315 311 309 303 295 291 291 298 304 309 313 317 324 330 337 342 341 336 332 314 307 319 332 336 343 347 346 330 339 8 40 84
311 313 314 314 316 317 316 316 316 315 315 313 310 308 302 292 288 289 297 301 306 312 317 322 328 335 340 342 340 332 326 306 309 321 335 339 345 347 346 322 282 264 231
311 312 314 316 316 316 316 316 314 311 310 310 314 310 305 293 288 289 295 298 301 309 316 321 327 333 337 342 343 337 328 318 300 309 321 333 338 343 346 346 322 260 229
312 314 316 315 315 315 315 314 311 305 304 306 309 315 314 304 291 287 291 295 296 300 310 316 322 328 333 339 344 344 333 325 308 292 302 316 324 332 339 346 354 13 159
315 316 315 315 315 313 314 313 307 299 298 300 303 307 310 311 306 294 290 290 292 296 301 309 316 322 325 332 338 344 343 330 320 300 283 290 302 307 316 320 319 297 171
316 315 314 313 312 311 313 312 304 294 292 295 298 301 303 303 303 303 299 295 294 294 297 301 308 316 317 324 330 335 342 339 323 311 292 274 277 284 283 285 275 253 225
315 314 312 311 310 309 311 311 302 292 289 291 294 296 298 302 299 296 297 297 296 295 293 295 298 305 309 317 320 324 330 339 334 315 301 280 264 264 266 261 257 251 240
313 311 310 310 309 309 310 309 302 290 285 287 290 293 293 295 300 296 293 293 293 292 292 292 293 293 298 305 309 314 318 325 335 329 307 293 275 257 254 254 251 248 244
310 310 309 309 308 307 307 307 300 290 284 283 285 289 292 292 292 293 293 295 294 291 291 291 291 292 294 296 299 305 308 312 321 330 323 301 286 273 256 249 249 248 245
306 308 309 308 308 307 306 305 297 287 284 284 284 285 287 289 290 289 291 292 292 290 290 291 291 291 291 292 294 297 299 301 308 317 325 318 295 280 271 256 248 246 246
305 306 308 307 306 305 304 302 296 288 284 284 283 285 286 286 286 287 288 290 290 290 290 291 290 290 290 289 290 291 290 290 296 305 313 319 312 289 276 270 258 250 245
307 306 306 305 304 302 301 298 293 286 283 282 282 283 285 285 285 286 286 286 286 286 287 287 287 287 287 286 286 285 283 283 286 293 300 306 312 306 285 274 268 259 252